Location: Kershaw
(34.5481°N, 80.5823°W)
Time: 07:13:16
(UTC+00:00)

Explorer 7 - Pass Details

Date: 12 October 2022
Orbit: 481 x 665 km, 50.3° (Epoch: 28 November)

Event Time Altitude Azimuth Distance (km) Brightness Sun altitude
Rises 18:19:38 0° 314° (NW) 2,990 10.4 44.6°
Reaches altitude 10° 18:22:06 10° 321° (NW) 2,062 9.7 44.4°
Maximum altitude 18:26:42 47° 35° (NE) 847 7.9 44.0°
Drops below altitude 10° 18:31:05 10° 109° (ESE) 1,968 9.7 43.6°
Sets 18:33:24 0° 116° (ESE) 2,839 10.4 43.3°
